{"data":{"norad_id":65791,"intl_designator":"2025-218A","name":"STARLINK-35330","alt_names":[],"object_type":"PAYLOAD","status":"ACTIVE","operator":null,"country":"US","launch_date":"2025-09-26","launch_site_code":"AFWTR","launch_vehicle":null,"mission":null,"orbit_class":"UNKNOWN","rcs_meters":null,"size_class":null,"mass_kg":null,"dimensions":null,"purposes":["comms"],"wikipedia_slug":null,"has_3d_model":false,"image_url":null,"decayed_at":null,"tle_current":{"epoch":"2026-09-20T21:55:19.027488Z","epoch_age_seconds":73333,"freshness":"FRESH","line1":"1 65791U 25218A   26263.91341467  .00005965  00000+0  18695-3 0  9996","line2":"2 65791  97.2827 121.2247 0001441  72.6497 287.4904 15.33445430 54396","mean_motion":15.3344543,"eccentricity":0.0001441,"inclination_deg":97.2827,"raan_deg":121.2247,"arg_perigee_deg":72.6497,"mean_anomaly_deg":287.4904,"bstar":0.00018695,"rev_number":5439,"period_min":93.906178324194,"perigee_km":464.55572097218,"apogee_km":466.52806922974,"semimajor_km":6843.678895101,"source":"CELESTRAK","updated_at":"2026-09-21T09:00:35.712996Z"}}}